Regional Weather Roundup
Issued by NWS Kansas City/Pleasant Hill, MO

Home | Current Version | Previous Version | Text Only | Print | Product List | Glossary On
Versions: 1 2 3 4 5 6 7 8 9 10 11 12 13 14 15 16 17 18 19 20 21 22 23 24 25 26 27
000
ASUS43 KEAX 260610
RWREAX

WEATHER ROUNDUP FOR EASTERN KANSAS AND NORTHWEST MISSOURI
NATIONAL WEATHER SERVICE KANSAS CITY/PLEASANT HILL MO
100 AM CDT FRI MAY 26 2017

KSZ040-057-103>105-MOZ028-029-037-043-260700-
...KANSAS CITY METROPOLITAN AREA...

CITY           SKY/WX    TMP DP  RH WIND       PRES   REMARKS
K.C. INTL      CLOUDY    66  57  72 SE10      29.68F
6HR MIN TEMP:  65; 6HR MAX TEMP:  73;

K.C. DOWNTOWN  CLOUDY    69  57  65 E6        29.68S
6HR MIN TEMP:  66; 6HR MAX TEMP:  76;

LEES SUMMIT    MOCLDY    65  57  75 SE7       29.70R
6HR MIN TEMP:  63; 6HR MAX TEMP:  74;

OLATHE - IXD   CLOUDY    66  57  72 SE10      29.68F
6HR MIN TEMP:  65; 6HR MAX TEMP:  75;

OLATHE - OJC   MOCLDY    65  58  78 SE8       29.68F
6HR MIN TEMP:  64; 6HR MAX TEMP:  73;

LAWRENCE       CLOUDY    65  59  81 E6        29.67F

$$

MOZ001>008-011>017-020>025-030>033-038>040-044>046-053-054-260700-
...NORTHERN AND CENTRAL MISSOURI...

CITY           SKY/WX    TMP DP  RH WIND       PRES   REMARKS
ST. JOSEPH     MOCLDY    65  57  75 SE7       29.68S
6HR MIN TEMP:  64; 6HR MAX TEMP:  75;

MOSBY          MOCLDY    64  54  68 SE3       29.69S
WARRENSBURG    CLOUDY    63  54  72 SE5       29.71R
WHITEMAN AFB   CLOUDY    62  62 100 SE5       29.71R
6HR MIN TEMP:  62; 6HR MAX TEMP:  74;

CLINTON        CLOUDY    64  57  77 SE5       29.71R
SEDALIA        CLOUDY    64  58  80 SE7       29.73S
6HR MIN TEMP:  64; 6HR MAX TEMP:  74;

WARSAW         NOT AVBL
CHILLICOTHE      N/A     65  55  70 SE3       29.72R
6HR MIN TEMP:  65; 6HR MAX TEMP:  73; 6HR PCP:  0.01;

KIRKSVILLE     CLOUDY    61  53  75 SE7       29.75F
6HR MIN TEMP:  60; 6HR MAX TEMP:  71;


$$

MOZ041-047>049-056>058-063>065-088>090-097-260700-
...EASTERN AND SOUTHERN MISSOURI...

CITY           SKY/WX    TMP DP  RH WIND       PRES   REMARKS
ST. LOUIS INTL MOCLDY    67  52  58 SE8       29.78F
6HR MIN TEMP:  64; 6HR MAX TEMP:  77; 6HR PCP: TRACE;

SPIRIT OF STL  PTCLDY    62  54  74 S6        29.77F
COLUMBIA       CLOUDY    63  54  72 SE9       29.75S
JEFFERSON CITY CLOUDY    67  54  63 E8        29.74S
ROLLA          CLEAR     61  54  77 SE8       29.77R
OSAGE BEACH    PTCLDY    63  55  75 SE5       29.75S
SPRINGFIELD    CLOUDY    67  57  70 SE13      29.71S
BRANSON        PTCLDY    64  57  77 SE7       29.74S
JOPLIN         PTCLDY    71  59  65 SE12      29.65F
WEST PLAINS    PTCLDY    64  56  75 S8        29.80S

$$

IAZ060-094-KSZ022-034>040-054-083-096-NEZ052-066-093-260700-
...KANSAS...SOUTHEAST NEBRASKA AND IOWA...

CITY           SKY/WX    TMP DP  RH WIND       PRES   REMARKS
TOPEKA         MOCLDY    66  60  81 E7        29.64F
6HR MIN TEMP:  66; 6HR MAX TEMP:  77;

MANHATTAN      TSTM      65  62  90 W5        29.70R
EMPORIA        CLOUDY    64  61  90 E8        29.64S
CHANUTE        PTCLDY    70  59  68 N14       29.65R
WICHITA        MOCLDY    72  61  68 NE10      29.62R
OMAHA          CLOUDY    67  55  65 S10       29.66S
LINCOLN        MOCLDY    67  56  67 S10       29.65F
FALLS CITY     CLOUDY    65  57  75 SE5       29.66S
LAMONI         CLOUDY    61  53  75 SE6       29.71S
DES MOINES     PTCLDY    63  52  67 CALM      29.71R

$$





USA.gov is the U.S. government's official web portal to all federal, state and local government web resources and services.